GFSCGP_con_sbcape_159.txt.gz
CAPE
0 0 0 0 0 0 0 0 0 0 0 0 0 0 0 0 0 0 0 0 0 0 54 2106 2014 1683 1672 1660 1584 1511 1452 1305 769 1152 1003 1082 917 746 597 486 464 445 223 159
0 0 0 0 0 0 0 0 0 0 0 0 0 0 0 0 0 0 0 0 0 0 481 1890 1812 1747 1538 1605 1372 1523 1775 1844 1357 1054 1068 869 795 697 766 712 740 689 983 974
8 0 0 0 0 0 0 1 3 0 0 0 0 0 0 0 0 0 0 0 0 0 270 1729 1747 1693 1618 1522 1474 1498 1675 1277 1270 983 1059 1478 1426 1258 904 690 848 96 1 24
13 0 0 0 0 0 5 2 0 0 2 0 0 0 0 0 0 0 0 0 0 0 38 1605 1743 1774 1764 1717 1824 1463 1359 1214 1124 1027 1177 1611 1292 603 309 176 17 11 11 3
1 0 0 0 2 19 14 5 2 6 10 2 0 1 0 0 0 0 0 0 0 0 0 1271 1733 1813 1845 1854 1518 1454 1344 1412 1470 1379 1704 776 240 4 7 8 7 5 4 6
0 2 6 0 7 3 18 8 5 9 12 11 0 0 0 0 0 0 0 0 0 0 0 1260 1863 1907 1795 1605 1425 1404 1474 1590 1898 1651 929 447 87 4 5 6 6 9 7 6
1 1 1 0 12 5 16 20 23 34 40 1 0 0 0 0 0 0 0 0 0 0 29 1425 1955 1861 1637 1450 1418 1470 1293 1715 1603 979 638 522 337 130 1 2 5 4 5 5
11 1 0 0 1 16 37 8 2 2 6 0 2 10 0 0 0 0 0 0 0 0 293 1638 2107 2098 1631 1499 1465 1280 1568 1749 1332 1003 604 733 601 629 248 8 22 4 5 3
76 12 0 22 37 4 20 11 2 34 1 13 21 1 0 0 0 0 0 0 0 0 553 1890 2246 1991 1204 1186 1126 1246 1516 1268 1421 521 662 955 624 102 1 9 8 9 9 14
7 23 0 10 21 13 23 2 12 43 14 21 0 7 0 0 0 0 0 0 0 0 199 1720 1915 1102 960 699 706 770 742 801 788 630 760 438 66 3 7 8 6 6 4 0
4 3 3 41 26 12 92 33 20 22 29 68 70 0 0 0 0 0 0 0 0 0 206 1261 1046 515 177 2 16 8 19 42 69 56 5 5 6 6 4 7 3 1 0 0
6 10 68 2 15 1 19 72 15 69 0 15 132 27 0 0 0 0 0 0 0 212 824 538 28 1 4 2 1 1 2 1 2 3 3 3 2 1 0 0 0 0 0 0
11 36 21 8 25 12 108 38 52 83 86 40 23 305 683 780 153 0 0 10 658 623 114 9 1 3 2 1 1 2 1 1 1 2 0 0 0 0 0 0 0 0 0 0
23 30 58 37 3 18 36 29 25 56 64 25 16 4 0 737 0 42 401 794 511 30 12 3 2 2 1 1 1 0 0 0 0 0 0 0 0 0 0 0 0 0 0 0
16 11 12 8 18 14 72 14 52 39 18 50 2 20 6 657 615 822 370 317 68 4 3 2 2 1 1 0 0 0 0 0 0 0 0 0 0 0 0 0 0 0 0 0
5 15 12 40 60 15 11 37 43 20 33 17 15 5 5 953 898 459 163 6 3 2 2 2 1 3 2 1 0 0 0 0 0 0 0 0 0 0 0 0 0 0 0 0
8 21 17 101 46 58 99 59 55 39 17 20 11 0 704 657 348 86 8 4 3 2 2 2 3 5 6 1 0 0 0 0 0 0 0 0 0 0 0 0 0 0 0 0
14 11 13 106 26 23 10 2 6 7 7 17 12 7 2 1 1 2 3 3 3 2 3 3 4 5 2 0 0 0 0 0 0 0 0 0 0 0 3 3 1 1 0 0
1 7 38 93 49 29 5 7 10 7 0 10 15 3 2 1 0 0 2 1 2 3 4 6 11 5 2 0 0 0 0 0 0 0 0 1 1 7 8 4 4 0 0 0
0 0 16 17 3 5 6 2 3 11 4 8 5 2 0 0 0 8 3 2 3 3 4 8 3 0 0 0 0 0 0 0 0 0 0 4 10 9 8 6 2 0 0 0
2 1 3 1 5 12 2 3 0 38 11 7 8 1 0 2 2 8 2 0 1 0 3 0 0 0 1 0 0 0 0 0 0 0 0 0 4 25 21 8 1 0 0 0
10 7 6 4 2 3 1 0 5 4 3 5 9 7 3 2 2 2 1 1 0 0 0 0 0 0 0 0 0 0 0 0 0 0 0 0 0 4 15 6 2 0 0 0
7 13 9 10 8 7 3 7 1 2 4 6 1 6 5 1 3 4 1 2 1 0 0 0 0 0 0 0 0 0 0 0 0 0 0 0 0 0 0 0 0 0 0 0
5 11 9 6 10 2 5 2 6 7 3 12 12 6 2 4 4 10 2 4 3 0 0 0 0 0 0 0 0 0 0 0 0 0 0 0 0 0 0 0 0 0 0 0
11 20 7 4 3 0 0 2 4 4 2 7 8 3 0 1 2 1 6 2 2 1 0 0 0 0 0 0 0 0 0 0 0 0 0 0 0 0 0 0 0 0 0 0
26 19 7 5 4 10 1 3 2 2 3 2 0 1 1 0 2 1 2 1 2 1 0 0 0 0 0 0 0 0 0 0 0 0 0 0 0 0 0 0 0 0 0 0

GFSCGP_con_sbcape_162.txt.gz
CAPE
19 28 31 25 43 38 19 6 11 15 6 0 0 2 2 0 0 0 0 0 0 0 0 0 1005 2034 2720 2959 2795 2869 2778 2764 2616 1826 1644 1460 1365 1429 1270 1178 1093 1017 487 254
33 35 22 38 41 52 48 36 22 44 43 20 0 0 0 0 0 0 0 0 0 0 0 0 1684 2374 2726 3055 2971 2923 2695 2740 2139 1703 1531 1206 1207 1380 1270 1019 1049 919 856 1102
18 14 33 17 20 42 51 36 28 64 71 50 8 0 0 0 0 0 0 0 0 0 0 21 1797 2786 3118 3218 3039 2966 2505 2272 2065 2215 1813 1707 1644 1774 1390 1557 1275 1400 1076 822
9 0 9 20 29 42 64 38 34 12 5 51 71 60 0 0 0 0 0 0 0 0 0 140 2307 3147 3211 3298 3177 2844 2489 2750 2246 2242 1921 2071 1208 1246 818 101 120 215 49 28
0 16 30 45 40 30 21 21 28 50 44 26 38 61 0 0 0 0 0 0 0 0 0 69 2506 3255 3248 3215 2900 2825 2765 2491 2086 1869 1915 1773 931 265 7 5 9 59 50 54
2 15 7 5 40 34 22 40 54 55 58 122 42 145 18 4 0 0 0 0 0 0 0 10 2378 3294 3383 3190 3044 2870 2577 2275 2196 2076 2142 1009 372 30 6 10 75 15 18 11
16 18 28 5 44 60 22 122 119 172 131 51 127 108 29 0 0 0 0 0 0 0 0 11 2467 3101 3270 3239 3075 2826 2465 2545 2484 2432 1636 1337 752 584 542 369 16 7 6 6
43 31 12 38 57 41 53 78 172 213 230 124 92 21 1 0 0 0 0 0 0 0 0 118 2425 2944 3159 3044 2891 2120 2563 2503 2148 2067 1931 1520 1280 1283 747 80 8 3 7 8
67 42 10 11 37 12 21 22 23 16 1 110 154 76 6 1 0 0 0 0 0 0 0 803 2429 2876 2946 2865 2448 2247 2415 2285 2002 2137 1975 1818 1927 1012 390 296 59 7 4 3
12 51 11 28 20 16 20 20 240 244 158 218 192 147 58 31 0 0 0 0 0 0 18 1610 2607 2879 2847 2150 2277 2711 2595 2325 1882 2095 2009 873 111 83 8 13 11 7 5 0
11 3 2 44 44 64 52 62 197 242 130 232 206 134 141 0 0 0 0 0 0 0 620 2110 2179 2018 1611 1834 2129 2522 2509 1921 1898 1247 44 5 84 10 9 9 13 6 0 0
16 9 53 16 23 116 110 150 159 289 218 183 119 13 378 0 2 0 0 0 0 0 1622 1470 938 934 1134 1394 1265 1376 1376 1242 180 5 6 11 16 16 10 3 2 1 0 0
10 38 55 71 31 30 87 154 243 225 214 119 108 9 12 10 162 0 0 0 0 965 842 542 583 592 468 495 454 238 174 14 6 4 4 13 14 16 12 7 3 1 0 0
28 42 36 65 176 11 45 56 56 87 101 105 27 13 0 2 112 36 35 55 521 965 522 379 272 140 41 28 15 3 4 3 2 3 3 4 5 5 5 5 4 2 1 0
16 36 31 18 60 94 43 61 27 79 51 51 16 118 11 1 0 109 73 1373 622 319 131 88 29 5 2 3 2 1 3 4 2 1 0 3 5 2 1 2 4 2 0 0
19 25 18 11 117 74 57 27 2 6 27 39 18 19 0 6 0 481 1159 368 120 38 5 13 8 4 4 2 1 2 3 3 3 1 1 0 0 2 3 3 3 0 0 0
18 36 23 58 92 48 71 12 10 13 36 4 35 0 0 166 982 868 446 195 13 7 5 5 5 4 3 2 3 3 3 0 0 1 4 2 3 1 2 1 2 4 6 7
17 15 48 94 110 88 17 9 12 8 17 11 11 4 6 177 149 165 165 67 5 6 5 4 3 6 7 6 4 6 6 1 1 1 1 1 1 3 3 5 3 4 5 4
3 14 52 103 165 24 9 10 20 19 0 20 8 12 4 2 0 2 3 5 4 5 4 3 5 9 22 7 4 4 3 1 2 1 1 1 1 3 8 7 8 6 2 2
2 12 16 13 27 35 14 6 4 10 38 4 7 7 1 14 0 7 2 2 2 3 2 5 8 7 9 8 4 3 2 0 1 0 1 3 9 14 16 12 13 11 7 5
15 8 16 13 6 22 13 4 1 16 4 10 18 4 1 4 6 5 3 2 1 1 4 13 11 11 11 7 3 3 4 5 3 4 7 13 9 9 14 16 14 16 13 11
18 13 14 9 10 11 8 2 6 13 11 25 12 7 4 6 8 3 1 0 0 1 8 10 10 10 12 9 3 4 4 6 4 5 19 26 23 16 11 8 10 1 1 1
24 21 19 15 16 16 9 9 3 22 9 19 10 6 3 3 3 2 2 4 1 7 9 8 9 10 9 4 0 0 2 2 3 6 17 20 24 21 27 8 0 0 0 0
24 12 21 20 15 10 10 6 4 20 15 6 13 8 6 4 1 1 0 1 2 7 12 12 10 9 8 4 1 0 1 1 4 9 14 12 10 3 1 0 0 0 3 3
26 18 18 13 14 2 3 4 7 19 15 18 10 22 4 1 3 1 0 0 6 6 9 8 13 15 11 5 2 1 1 2 6 7 9 7 4 2 0 0 0 0 0 0
30 34 22 21 8 15 3 1 12 11 7 13 2 2 2 5 5 4 4 6 0 5 8 8 12 5 9 4 3 5 6 5 6 7 7 6 5 0 0 0 0 0 0 0

GFSCGP_con_sbcape_165.txt.gz
CAPE
36 28 30 39 54 54 60 72 104 45 23 48 103 17 24 17 0 0 0 0 0 0 0 0 0 0 564 3469 3164 2920 2922 3001 2953 2675 2613 2225 1840 1603 989 1033 1511 1419 660 302
47 38 32 19 43 40 43 61 83 109 79 73 136 90 94 28 9 1 0 0 0 0 0 0 0 0 1624 3695 3233 3320 3480 3347 3240 2843 2813 1974 1673 1121 1029 1269 1389 1025 711 725
19 18 35 38 53 60 69 81 56 105 133 90 163 168 205 18 4 0 0 0 0 0 0 0 0 97 2774 3297 3268 3477 3714 3729 3675 3030 2846 2633 2164 1936 1164 1516 1116 1194 1215 1368
12 11 9 18 31 40 65 56 68 101 199 187 114 152 195 85 16 0 0 0 0 0 0 0 0 590 3207 3127 3133 3518 3723 3277 3216 3960 2597 2938 1647 1347 1564 1563 1901 1643 1370 1204
1 19 15 22 42 37 44 77 88 131 237 150 137 169 43 216 103 4 0 0 0 0 0 0 0 1380 3135 2856 3270 3222 2932 3274 3169 3464 2980 2412 2212 961 979 1054 1185 1031 890 583
11 15 22 21 31 34 34 71 110 136 91 250 171 215 121 208 142 44 0 0 0 0 0 0 0 1911 3342 2912 2875 2815 2682 3316 3179 3545 3653 2504 815 566 749 1032 957 438 479 234
32 40 34 44 52 31 41 83 83 139 367 173 208 181 91 179 126 65 5 0 0 0 0 0 0 2733 3240 2281 3007 2905 3159 3045 3220 3351 2634 1417 1296 1246 1274 1361 168 211 101 73
54 35 2 7 35 33 49 105 39 42 359 283 244 190 169 266 147 77 6 0 0 0 0 0 0 2798 2396 2650 3069 2614 2831 2711 2948 2836 2002 1637 1621 1440 1274 255 333 98 25 8
83 38 9 0 0 45 36 81 35 100 345 356 276 198 267 183 139 113 12 0 0 0 0 0 0 1848 1840 2963 2856 3009 3072 2943 2688 2310 2517 1884 2560 1610 669 553 598 3 5 12
33 38 2 18 15 45 14 64 178 138 173 229 164 157 150 219 154 52 31 0 0 0 0 0 0 128 1133 2509 2881 3136 2999 2820 2546 2428 1911 2184 1732 1173 781 471 22 99 22 6
12 3 1 7 23 66 100 28 42 235 344 318 213 143 146 232 288 191 16 0 0 0 0 0 745 212 1372 1791 2480 2527 2376 2513 2148 1487 1242 1017 823 494 264 172 153 30 12 4
20 8 40 1 1 30 54 146 135 449 209 274 208 261 17 43 80 187 70 0 12 0 0 350 1715 65 46 1496 2312 2230 1882 1075 1004 1175 876 578 445 176 104 66 15 12 1 0
10 37 60 53 105 0 4 36 232 255 356 290 287 197 10 21 53 60 183 0 0 6 25 2249 908 118 1614 2154 1966 957 315 422 671 555 261 253 188 82 56 25 10 2 0 0
40 24 24 71 92 41 46 13 100 114 192 112 68 38 11 47 31 34 104 0 0 1300 1454 815 733 368 851 683 211 53 40 215 272 184 125 41 25 20 14 8 3 0 0 0
15 20 28 24 9 22 131 118 62 37 38 80 17 2 85 56 92 98 80 26 1728 1410 676 339 84 237 128 13 20 17 51 123 160 187 21 17 13 11 6 3 2 1 0 0
30 27 31 33 42 58 27 18 0 43 43 36 24 76 139 106 48 51 208 1534 1081 689 258 155 171 34 2 5 2 2 3 0 24 9 10 6 6 4 6 3 2 1 1 1
27 38 24 24 28 55 36 10 13 21 16 4 23 4 62 0 437 669 1199 1354 743 326 55 77 39 5 5 2 3 2 2 0 5 4 2 3 3 1 1 1 2 6 6 6
27 20 33 74 106 99 8 10 12 22 24 10 17 14 59 13 461 1063 912 581 246 159 26 11 5 6 4 1 1 1 1 0 1 1 1 0 0 0 1 2 4 6 8 9
8 19 45 75 100 57 31 12 8 6 4 16 10 2 237 18 0 16 213 182 125 108 41 14 15 6 4 2 1 0 0 0 0 0 0 0 1 2 3 4 6 8 8 11
8 15 33 47 29 79 14 6 3 14 14 4 6 3 16 328 0 2 1 3 14 66 127 140 60 47 33 5 0 0 0 0 0 0 1 4 5 5 8 7 9 9 7 7
14 7 18 20 26 20 8 8 0 13 10 6 9 9 3 3 3 2 1 1 2 27 55 46 47 60 75 17 7 7 7 3 2 5 8 10 10 14 14 13 17 17 14 16
28 35 14 16 20 11 12 1 11 10 7 20 9 16 4 2 1 0 0 1 0 1 1 2 3 12 20 17 9 7 10 20 20 7 12 15 17 11 14 17 10 12 15 18
57 31 39 19 20 28 20 2 9 18 21 21 11 5 5 1 0 0 0 0 0 1 2 4 4 0 1 8 14 16 27 33 18 29 31 23 22 14 12 13 13 6 3 4
18 13 26 18 18 14 12 8 5 23 28 8 6 2 4 2 0 0 0 0 0 3 7 8 15 18 19 18 9 9 13 19 18 27 18 17 11 9 6 1 1 3 3 4
27 19 18 10 12 3 3 8 11 18 17 7 4 4 5 0 0 0 0 0 0 0 2 6 13 17 17 11 8 8 7 8 17 10 6 5 3 2 0 0 0 0 0 0
21 37 21 15 11 11 5 7 13 15 13 10 4 3 8 0 1 0 0 0 5 10 14 19 25 23 11 7 7 5 4 4 8 9 4 3 4 1 0 0 0 0 0 0

GFSCGP_con_sbcape_168.txt.gz
CAPE
10 23 13 17 14 11 23 61 63 44 25 36 17 9 10 34 4 4 0 0 0 0 0 0 0 0 506 3076 2319 1420 163 2442 2362 2468 1822 2145 1950 2287 1639 2177 1994 2010 1863 1162
34 31 31 22 11 24 29 44 67 12 36 73 36 63 25 50 38 13 14 5 1 0 0 0 0 0 474 3563 2702 2193 2595 2463 2279 2504 2140 2278 1502 1850 1524 2040 2200 1913 1983 1744
24 7 22 22 23 43 51 56 67 30 45 42 75 50 147 15 74 40 10 14 0 3 0 0 0 0 4 3495 3314 2329 2123 2348 2267 2399 2332 2549 1607 1924 1669 1933 1796 1768 1581 1388
17 6 14 21 24 27 21 38 32 52 83 46 175 124 55 139 164 198 92 13 0 3 6 0 1 2 178 3339 3451 2979 2846 2596 2528 2382 2507 2302 1424 1358 1764 1372 1769 1927 1781 1435
0 7 14 15 3 14 13 38 36 112 134 95 128 139 49 124 207 213 106 9 7 0 7 0 0 0 1353 3647 3439 3171 2928 2736 2788 2563 2139 2089 1678 2339 1690 1968 1865 1373 510 287
7 6 11 1 2 10 5 26 36 71 134 122 27 122 1 175 215 153 239 101 14 0 0 0 0 0 2783 3606 3551 3336 2881 2433 2219 2119 2382 2447 2021 1599 1813 1450 591 348 208 168
34 4 7 23 19 37 10 38 221 146 231 34 35 119 29 192 212 242 155 56 30 0 0 0 0 4 1844 3193 3288 2966 2498 1696 1409 2261 2778 2059 1733 1609 1619 788 289 188 2 2
50 40 0 2 3 25 23 24 29 37 122 20 34 95 107 288 360 284 92 66 102 0 0 0 0 0 3183 3532 3074 2825 1901 1872 1619 2345 2219 1820 1669 1277 990 201 429 388 0 1
64 19 1 0 0 0 1 50 9 2 2 255 26 18 174 90 66 208 133 64 73 56 0 0 0 0 2669 3029 2929 2598 1923 2064 2108 2321 2137 1796 1665 977 379 690 282 70 17 9
7 14 0 0 0 1 14 31 187 59 44 83 43 174 166 197 221 56 205 191 95 113 0 0 0 0 2713 3022 2761 2318 2065 2091 2105 2044 1755 1725 873 564 652 246 68 38 38 8
15 2 0 2 0 1 19 22 59 72 69 157 124 80 60 183 74 8 79 189 150 30 1 0 0 1746 2944 2683 2336 2090 2127 2243 1883 1647 1691 991 506 446 200 180 53 12 3 1
6 5 25 0 0 3 15 42 47 93 0 165 161 33 127 123 52 2 96 191 163 20 0 0 1107 1715 1364 2186 1597 1692 1769 1728 1319 1450 688 363 146 114 182 15 2 3 0 0
5 19 27 5 40 46 36 35 57 60 65 267 222 85 246 69 68 26 71 105 114 4 0 715 1879 1120 282 61 4 961 431 871 789 611 290 96 59 38 6 2 2 0 0 0
11 16 12 26 6 24 28 45 49 70 51 66 94 102 91 102 46 56 21 132 22 16 2078 2097 612 103 0 10 0 255 479 532 523 133 128 33 2 0 2 3 0 0 0 0
11 17 23 18 17 23 17 31 45 48 16 164 79 24 65 38 118 129 31 76 22 1235 804 887 223 40 0 0 129 145 378 317 87 34 2 2 2 1 2 0 0 0 0 0
11 32 17 12 0 3 70 3 1 2 2 5 13 9 45 0 19 79 91 48 193 1046 627 846 267 29 0 0 167 205 91 37 10 2 3 1 0 0 0 0 0 0 0 0
10 27 33 7 1 30 5 10 9 11 4 13 20 1 1 1 0 40 134 221 387 971 436 267 128 19 31 85 42 7 19 3 1 1 3 0 0 0 0 0 0 0 1 0
6 17 40 22 31 20 13 11 14 13 11 21 30 20 11 9 3 63 124 385 658 620 233 54 19 1 1 1 1 0 0 0 1 1 0 0 0 0 2 2 2 3 4 4
2 27 65 54 44 5 4 6 5 16 1 5 3 6 5 50 118 269 827 526 337 44 4 7 0 1 1 1 1 0 0 1 0 0 0 0 0 0 2 5 4 5 5 7
21 36 31 31 45 38 12 4 0 4 2 3 3 4 3 105 439 354 387 189 38 5 4 2 1 1 0 0 1 2 2 1 0 0 0 0 0 2 4 4 2 2 0 0
27 3 16 12 27 9 4 2 0 0 2 0 5 3 49 2 49 17 206 115 25 9 10 6 2 0 0 0 0 0 0 0 1 0 0 0 1 4 2 7 12 7 2 0
74 35 31 12 19 2 14 1 6 1 0 10 5 4 2 13 27 9 19 37 34 29 14 10 5 5 8 0 0 0 0 0 0 0 0 2 3 1 4 2 0 2 0 0
52 45 40 17 22 9 13 1 14 8 10 10 6 3 2 0 1 0 2 1 0 0 0 1 3 5 8 4 0 1 8 0 0 0 3 6 5 1 5 9 10 9 9 3
15 9 32 32 5 6 10 13 11 6 20 8 4 6 2 0 0 0 0 0 0 0 0 0 3 6 12 4 3 1 0 0 0 5 10 13 10 7 7 0 0 0 0 2
17 14 18 9 10 2 2 11 8 5 18 3 4 6 1 2 0 0 0 0 0 0 0 0 1 5 11 2 1 1 2 0 5 10 7 1 0 0 0 0 0 0 0 0
5 16 18 11 2 5 2 3 7 14 8 5 5 4 0 0 0 0 0 0 0 0 0 0 8 7 7 9 11 11 9 5 0 3 1 0 0 0 0 0 0 0 0 0

GFSCGP_con_sbcape_171.txt.gz
CAPE
0 0 0 0 0 0 0 0 0 0 0 0 0 0 0 0 0 0 0 0 0 0 0 0 0 0 1883 1170 601 218 310 128 459 1011 1448 1452 1193 1035 1151 845 745 922 574 406
1 2 0 2 4 0 0 0 0 0 0 4 0 0 0 0 0 0 0 0 0 0 0 0 0 0 1776 676 388 290 230 89 496 969 1277 1517 903 1443 1251 1242 1148 1123 685 179
0 0 0 2 0 0 0 8 3 0 8 0 10 0 0 0 0 0 0 0 0 0 0 0 0 0 1965 454 86 0 183 654 1041 1279 1439 1506 1266 1270 1476 1372 1178 983 518 958
0 0 0 0 0 0 0 10 5 7 13 0 8 0 0 0 0 0 0 0 0 0 0 0 0 0 2146 1517 389 234 48 13 918 1233 1349 1440 1380 1485 1628 1217 871 653 602 402
0 0 0 1 0 0 0 0 0 0 0 0 5 32 0 0 0 0 0 0 0 0 0 0 0 0 218 2225 1905 1289 120 0 555 465 1079 1448 1201 1340 1216 1063 411 216 140 129
0 0 5 0 1 3 0 2 0 0 10 4 0 6 0 0 0 0 0 0 0 1 0 0 0 0 302 2823 2255 1958 1439 866 1105 573 501 984 1447 1488 1250 584 356 225 66 2
4 5 2 5 0 0 0 4 0 5 0 1 0 0 0 0 0 0 0 0 0 0 0 0 0 0 508 2706 2437 2130 1981 1578 1440 1232 1156 1283 1502 1351 638 337 199 62 13 0
11 0 0 0 0 0 0 7 42 10 21 3 0 0 0 0 5 5 0 9 0 0 1 0 0 0 165 2412 2443 2356 2190 1786 1397 1076 1100 970 1028 501 307 147 22 1 0 0
13 17 0 0 0 0 0 0 11 5 1 4 0 0 0 0 0 25 21 45 1 0 0 0 0 0 0 2097 2182 2254 1995 1542 1016 865 842 632 276 113 146 155 0 0 2 0
2 1 0 0 0 0 0 4 3 8 0 0 0 0 6 51 16 13 25 4 0 0 0 0 0 0 15 1833 2251 2090 1530 1122 1073 860 603 521 64 49 53 2 0 0 0 0
1 0 0 0 0 0 1 4 14 53 110 17 0 0 0 0 6 1 0 0 0 0 2 0 0 0 368 2180 2212 1712 1109 571 1044 794 650 198 132 1 0 0 0 0 0 0
0 3 6 0 0 0 0 0 3 46 0 0 0 0 0 0 7 0 0 0 0 0 8 0 0 0 1219 2406 2103 1494 670 428 985 838 336 198 14 0 0 0 0 0 0 0
2 4 1 0 0 0 26 24 25 35 4 5 3 0 2 0 4 0 0 0 0 0 5 0 67 52 1813 2553 1728 1481 1077 1386 1111 494 175 20 3 0 0 0 0 0 0 0
2 6 14 1 0 0 2 0 0 22 18 17 0 0 0 0 2 5 0 0 0 102 960 1493 858 663 1189 816 249 551 387 973 532 162 57 4 0 0 0 0 0 0 0 0
15 7 5 6 2 5 3 1 4 5 19 19 1 2 0 0 0 1 8 69 28 269 1590 792 251 202 534 354 70 0 0 3 1 14 0 0 0 0 0 0 0 0 0 0
14 3 2 2 0 0 18 5 12 15 13 18 7 11 0 0 0 0 0 72 71 172 1199 367 7 218 97 0 0 0 0 3 0 7 38 2 0 0 0 0 0 0 0 0
6 10 2 0 0 0 0 5 2 10 2 7 8 0 0 0 0 0 0 5 18 101 829 326 19 127 216 16 0 1 0 153 63 5 0 0 0 0 0 0 0 0 0 0
0 2 5 7 0 3 3 7 5 8 8 13 15 13 9 9 2 0 0 0 0 534 779 471 0 34 95 73 9 1 44 27 1 0 0 0 0 0 0 0 0 0 0 0
11 30 29 10 20 1 4 3 0 2 0 5 2 1 7 6 3 0 0 0 0 594 418 15 117 71 91 4 0 1 3 2 0 0 0 0 0 0 0 0 0 0 0 0
0 2 1 44 19 5 5 0 0 4 1 5 1 3 6 5 12 14 0 0 202 443 165 111 30 21 5 4 0 0 0 0 0 0 0 0 0 0 0 0 0 0 0 0
0 0 1 1 6 7 2 0 0 0 0 0 2 3 6 5 99 458 204 212 223 145 5 19 1 1 0 0 0 0 0 0 0 0 0 0 0 0 0 0 0 0 0 0
13 8 4 0 4 0 5 2 3 0 0 3 1 1 6 30 406 298 140 66 15 8 2 0 1 1 2 0 0 0 0 0 0 0 0 0 0 0 0 0 0 0 0 0
1 8 2 4 0 1 1 0 8 1 1 1 3 2 6 270 230 135 68 2 1 1 1 0 0 0 0 0 0 0 0 0 0 0 0 0 0 0 0 0 0 0 0 0
3 3 7 2 2 1 3 2 7 3 2 10 3 2 0 1 0 27 19 4 3 2 3 0 0 0 0 0 0 2 0 0 0 0 0 0 0 0 0 0 0 0 0 0
0 0 3 1 2 1 1 2 4 1 14 3 2 0 0 0 0 0 0 0 1 1 0 0 1 1 1 0 0 0 0 0 0 0 0 0 0 0 0 0 0 0 0 0
0 0 2 1 0 2 0 1 6 9 5 3 2 1 2 0 0 0 1 0 0 1 1 1 1 1 1 0 0 0 0 0 0 0 0 0 0 0 0 0 0 0 0 0

GFSCGP_con_sbcape_174.txt.gz
CAPE
0 0 0 0 0 0 0 0 0 0 0 0 0 0 0 0 0 0 0 0 0 0 0 0 0 1036 1455 847 551 501 716 632 201 487 299 316 89 150 137 222 144 126 310 236
0 0 0 0 0 0 0 0 0 0 0 0 0 0 0 0 0 0 0 0 0 0 0 0 0 1069 1513 1116 816 703 903 783 464 457 356 493 364 452 375 439 382 484 340 307
0 0 0 0 0 0 0 0 0 0 0 0 0 0 0 0 0 0 0 0 0 0 0 0 0 7 1471 1275 824 689 606 644 386 259 784 994 790 880 1000 804 710 768 527 520
0 0 0 0 0 0 0 0 0 0 0 0 7 0 0 0 0 0 0 0 0 0 0 0 0 0 1406 1287 867 774 479 456 29 10 745 1084 955 981 1283 1104 536 774 604 235
0 0 0 0 0 18 3 0 0 0 0 0 0 16 0 0 0 0 0 0 0 0 0 0 0 0 980 1321 862 659 485 256 167 363 912 1098 986 1002 1142 573 439 356 94 24
0 0 0 3 34 1 0 0 0 0 0 0 0 0 0 0 0 0 0 0 0 0 0 0 0 0 67 989 771 742 571 404 618 1091 1262 1320 928 956 681 334 266 187 19 2
0 9 0 8 0 0 0 0 0 11 0 0 0 0 0 0 0 0 0 0 0 0 0 0 0 0 0 1366 856 580 579 532 552 1132 1247 1171 656 860 452 317 232 28 1 1
0 0 0 0 0 0 0 0 1 1 0 0 0 0 0 0 0 0 0 0 0 0 0 0 0 0 0 1776 1423 1125 387 180 471 668 406 566 595 491 339 281 80 3 0 0
5 6 0 0 0 0 0 0 0 5 0 5 0 0 0 0 0 0 0 0 0 0 0 0 0 0 0 1169 1831 1523 938 205 402 347 0 528 763 364 123 0 0 0 0 0
6 6 0 0 0 0 0 0 2 29 15 5 0 0 0 0 0 0 0 0 0 0 0 0 0 0 0 1361 1680 1348 1575 673 350 1195 158 87 375 173 0 0 1 0 0 0
11 4 0 4 0 0 0 1 8 5 13 0 0 0 0 0 0 0 0 0 0 0 0 0 0 0 0 1080 1831 1564 1725 1672 1272 1084 479 53 67 89 7 0 0 0 0 0
0 1 0 0 0 0 0 0 5 10 3 6 0 0 0 0 0 0 0 0 0 0 0 0 0 0 21 824 1928 1667 1449 1216 910 616 212 65 9 39 1 0 0 0 0 0
0 1 0 0 0 0 2 0 13 32 26 0 5 0 0 0 0 0 0 0 0 0 1 92 310 122 372 1483 2044 1579 1365 1139 872 569 226 24 2 27 1 0 0 0 0 0
0 4 8 0 0 0 0 1 5 9 1 0 2 0 0 0 0 0 0 0 0 0 431 1441 1081 812 333 1910 1749 1201 1046 986 691 325 80 6 1 0 0 0 0 0 0 0
0 3 8 7 4 5 5 3 12 13 18 22 3 15 2 0 0 0 0 0 0 0 121 962 857 1246 1577 899 444 79 26 374 480 104 9 1 1 0 0 0 0 0 0 0
2 2 10 10 0 0 1 0 8 16 14 23 17 4 0 0 0 0 0 0 0 0 38 545 774 1264 815 398 191 25 17 168 203 20 1 0 0 0 0 0 0 0 0 0
3 6 13 0 0 0 0 0 2 4 4 5 6 0 5 3 1 0 0 0 0 0 25 444 766 772 402 157 25 0 0 0 11 0 0 0 0 0 0 0 0 0 0 0
5 23 8 6 2 0 5 10 11 3 0 0 9 17 16 6 4 2 0 0 0 0 0 519 808 177 174 10 14 0 0 3 1 2 1 0 0 0 0 0 0 0 0 0
6 12 20 22 1 0 0 8 1 0 0 9 4 0 0 2 8 1 0 0 0 0 0 387 599 322 13 0 0 0 0 0 3 7 3 1 0 0 0 0 0 0 0 0
0 0 5 4 11 0 5 10 1 0 0 2 0 0 3 6 6 1 0 0 0 0 6 426 454 122 53 3 0 1 0 0 2 2 2 0 0 0 0 0 0 0 0 0
0 0 0 0 0 0 8 3 0 1 0 0 1 2 6 6 7 0 0 0 0 0 400 332 154 31 3 2 0 0 0 0 1 1 0 0 0 0 0 0 0 0 0 0
4 5 0 1 0 0 2 0 1 0 0 0 0 0 3 3 2 0 0 2 254 141 208 29 2 4 0 0 0 0 0 0 0 0 0 0 0 0 0 0 0 0 0 0
8 1 2 0 0 0 0 0 6 3 0 0 0 3 3 0 112 238 168 98 115 175 1 1 0 0 0 0 0 0 1 0 0 0 1 0 0 0 0 0 0 0 0 0
0 0 2 1 0 1 0 2 6 3 0 3 7 4 0 37 29 71 30 19 1 1 0 0 0 1 1 0 0 0 0 0 0 0 0 0 0 0 0 0 0 0 0 0
0 0 1 0 0 0 0 1 4 1 1 2 2 0 1 1 1 1 1 5 6 2 1 0 0 1 1 0 0 0 0 0 0 0 0 0 0 0 0 0 0 0 0 0
0 0 0 0 0 0 0 1 4 0 5 2 3 0 0 0 1 0 1 1 1 1 0 0 0 0 1 0 0 0 0 0 0 0 0 0 0 0 0 0 0 0 0 0